Stations météo

Publicité
Carcassonne, France (7635): Température de l'air & dewpoint: 17.04.2017 23:00:00 - 23.04.2017 23:00:00 (CEST)Carcassonne, France (7635): Température de l'air 5cm: 17.04.2017 23:00:00 - 23.04.2017 23:00:00 (CEST)Carcassonne, France (7635): Température de l'air -20cm & Température de l'air -100cm: 17.04.2017 23:00:00 - 23.04.2017 23:00:00 (CEST)Carcassonne, France (7635): Vitesse du vent & gusts: 17.04.2017 23:00:00 - 23.04.2017 23:00:00 (CEST)Carcassonne, France (7635): Direction du vent: 17.04.2017 23:00:00 - 23.04.2017 23:00:00 (CEST)Carcassonne, France (7635): reduced air pressure: 17.04.2017 23:00:00 - 23.04.2017 23:00:00 (CEST)Carcassonne, France (7635): visibility: 17.04.2017 23:00:00 - 23.04.2017 23:00:00 (CEST)Carcassonne, France (7635): Ensoleillement: 17.04.2017 23:00:00 - 23.04.2017 23:00:00 (CEST)Carcassonne, France (7635): Quantités de précipitations: 17.04.2017 23:00:00 - 23.04.2017 23:00:00 (CEST)
Date & Time tt [°C] td [°C] tt 5cm [°C] tt -20cm [°C] tt -100cm [°C] ff [km/h] ff [knt] fx [km/h] fx [knt] dd ppp [hPa] vv [km] sd [min] rr [mm]
23.04.2017 23:00:00 14,8 8,5 12,9 20,1 15,3 12 6 18 10 E 1017,1 45 0 0,0
23.04.2017 22:00:00 16,0 8,2 11,4 20,3 15,3 13 7 20 11 E 1016,5 60 0 0,0
23.04.2017 21:00:00 17,3 2,8 11,8 20,4 15,3 5 3 15 8 NW 1015,7 56 18 0,0
23.04.2017 20:00:00 23,1 2,0 21,4 20,4 15,3 12 6 22 12 W 1014,8 56 60 0,0
23.04.2017 19:00:00 25,0 0,5 26,9 20,1 15,2 16 8 26 14 WNW 1014,6 49 60 0,0
23.04.2017 18:00:00 26,0 1,3 30,6 19,8 15,3 13 7 25 13 WNW 1014,4 20 60 0,0
23.04.2017 17:00:00 26,1 1,4 31,6 19,1 15,3 16 9 30 16 NW 1014,6 49 60 0,0
23.04.2017 16:00:00 26,0 3,3 32,0 18,4 15,3 16 9 29 16 WNW 1015,1 32 60 0,0
23.04.2017 15:00:00 25,4 3,4 31,1 17,6 15,2 18 10 33 18 WNW 1016,0 20 60 0,0
23.04.2017 14:00:00 25,0 4,2 29,7 16,9 15,2 18 10 30 16 WNW 1016,5 37 60 0,0
23.04.2017 13:00:00 22,4 5,3 29,0 16,3 15,2 14 8 23 13 W 1017,4 44 60 0,0
23.04.2017 12:00:00 20,4 4,4 26,6 15,9 15,2 6 4 14 8 WNW 1018,3 53 60 0,0
23.04.2017 11:00:00 18,6 4,7 - - - 4 2 9 5 SE 1018,8 40 - -
23.04.2017 10:00:00 16,0 6,7 - - - 0 0 5 3 N 1019,2 45 - 0,0
23.04.2017 09:00:00 11,5 6,0 8,2 15,9 15,2 0 0 9 5 N 1019,6 54 60 0,0
23.04.2017 08:00:00 6,7 5,0 1,5 16,1 15,2 4 2 9 5 S 1020,0 43 43 0,0
23.04.2017 07:00:00 3,7 2,7 1,4 16,4 15,2 4 2 6 3 S 1020,0 19 0 0,0
23.04.2017 06:00:00 3,9 2,6 1,8 16,7 15,2 2 1 6 3 WNW 1019,9 38 0 0,0
23.04.2017 05:00:00 4,9 3,1 2,3 17,0 15,2 4 2 9 5 SW 1019,8 42 0 0,0
23.04.2017 04:00:00 5,6 3,9 2,7 17,3 15,2 5 3 10 5 E 1019,7 42 0 0,0
23.04.2017 03:00:00 5,4 3,6 3,0 17,7 15,2 0 0 4 2 N 1019,8 45 0 0,0
23.04.2017 02:00:00 6,1 3,9 3,7 18,0 15,2 2 1 6 4 NNW 1019,8 48 0 0,0
23.04.2017 01:00:00 7,5 4,4 4,2 18,3 15,2 2 1 5 3 SW 1019,8 59 0 0,0
23.04.2017 00:00:00 9,6 4,8 5,1 18,6 15,2 6 3 10 5 S 1019,8 58 0 0,0
22.04.2017 23:00:00 10,0 4,6 6,3 18,8 15,2 3 2 8 4 S 1019,8 60 0 0,0
22.04.2017 22:00:00 12,1 4,1 7,7 19,0 15,2 0 0 5 3 N 1019,6 60 0 0,0
22.04.2017 21:00:00 15,5 3,9 10,2 19,1 15,2 4 2 16 9 E 1018,9 18 17 0,0
22.04.2017 20:00:00 19,7 3,8 19,4 19,1 15,2 10 6 20 11 ENE 1018,7 43 60 0,0
22.04.2017 19:00:00 21,8 3,9 24,9 18,9 15,2 16 8 26 14 E 1018,7 28 60 0,0
22.04.2017 18:00:00 23,0 3,0 27,6 18,6 15,2 16 9 29 16 E 1018,9 26 60 0,0
22.04.2017 17:00:00 23,1 3,1 28,7 18,0 15,2 18 10 27 15 E 1019,6 26 60 0,0
22.04.2017 16:00:00 23,0 5,0 28,8 17,4 15,2 16 9 30 16 E 1020,5 26 60 0,0
22.04.2017 15:00:00 22,2 5,2 28,0 16,7 15,2 18 10 32 17 E 1021,5 28 60 0,0
22.04.2017 14:00:00 21,0 5,3 26,4 16,1 15,2 19 11 33 18 E 1022,5 27 60 0,0
22.04.2017 13:00:00 19,0 5,8 23,1 15,6 15,2 18 10 35 19 E 1023,5 28 60 0,0
22.04.2017 12:00:00 17,8 6,9 20,6 15,2 15,2 22 12 33 18 E 1024,5 30 60 0,0
22.04.2017 11:00:00 15,8 5,7 - - - 22 12 31 17 E 1025,1 45 - -
22.04.2017 10:00:00 13,3 7,5 13,4 15,1 15,2 18 10 27 15 E 1025,4 20 60 0,0
22.04.2017 09:00:00 10,8 4,3 8,2 15,3 15,2 15 8 21 11 E 1026,0 42 60 0,0
22.04.2017 08:00:00 7,5 2,6 0,6 15,5 15,2 10 5 16 9 E 1026,1 38 41 0,0
22.04.2017 07:00:00 4,0 1,4 0,3 15,8 15,2 6 3 10 5 E 1025,9 30 0 0,0
22.04.2017 06:00:00 4,8 1,8 2,9 16,1 15,2 8 4 13 7 E 1025,4 40 0 0,0
22.04.2017 05:00:00 5,7 2,7 2,7 16,3 15,2 7 4 13 7 E 1025,7 40 0 0,0
22.04.2017 04:00:00 6,6 3,6 1,6 16,6 15,2 11 6 16 8 E 1025,7 38 0 0,0
22.04.2017 03:00:00 5,6 2,6 1,4 16,9 15,2 7 4 10 6 E 1026,3 43 0 0,0
22.04.2017 02:00:00 5,7 1,0 2,0 17,2 15,1 0 0 10 5 N 1026,9 57 0 0,0
22.04.2017 01:00:00 9,4 2,3 7,0 17,5 15,2 6 3 17 9 ESE 1026,9 59 0 0,0
22.04.2017 00:00:00 9,8 0,4 7,1 17,8 15,2 11 6 19 11 E 1027,2 60 0 0,0
21.04.2017 23:00:00 10,7 -1,1 8,6 18,1 15,2 6 4 16 9 ESE 1027,2 60 0 0,0
21.04.2017 22:00:00 11,5 -1,7 9,1 18,2 15,2 8 4 21 12 E 1027,1 60 0 0,0
21.04.2017 21:00:00 13,4 -3,0 11,7 18,4 15,2 15 8 23 12 E 1026,6 60 16 0,0
21.04.2017 20:00:00 16,3 -4,3 16,1 18,4 15,2 17 9 34 19 E 1026,1 29 60 0,0
21.04.2017 19:00:00 18,2 -2,7 20,6 18,3 15,2 25 13 35 19 E 1025,8 23 60 0,0
21.04.2017 18:00:00 19,6 -2,1 23,7 18,0 15,2 22 12 32 18 E 1025,7 24 60 0,0
21.04.2017 17:00:00 19,9 -3,1 25,3 17,5 15,2 19 10 29 16 E 1025,8 19 60 0,0
21.04.2017 16:00:00 19,4 -4,2 25,5 16,9 15,2 18 10 34 18 E 1026,6 24 60 0,0
21.04.2017 15:00:00 18,6 -2,4 25,2 16,3 15,2 21 11 34 18 E 1027,2 24 60 0,0
21.04.2017 14:00:00 18,1 -0,7 24,2 15,7 15,2 19 10 37 20 ENE 1027,8 26 60 0,0
21.04.2017 13:00:00 17,7 0,8 22,7 15,2 15,2 21 12 35 19 ENE 1028,2 20 60 0,0
21.04.2017 12:00:00 15,8 1,5 20,6 14,9 15,2 19 10 29 16 E 1028,6 30 60 0,0
21.04.2017 11:00:00 14,4 1,6 17,8 14,7 15,2 18 10 27 15 E 1028,5 33 60 0,0
21.04.2017 10:00:00 12,5 2,1 12,7 14,8 15,2 15 8 22 12 E 1028,5 37 60 0,0
21.04.2017 09:00:00 8,3 -0,2 3,7 15,0 15,2 4 2 9 5 SE 1028,4 19 60 0,0
21.04.2017 08:00:00 3,4 -2,6 -0,8 15,3 15,2 5 3 11 6 S 1028,1 19 39 0,0
21.04.2017 07:00:00 0,8 -3,3 -1,5 15,6 15,2 5 3 10 5 S 1027,9 55 0 0,0
21.04.2017 06:00:00 1,2 -3,3 -1,2 15,9 15,2 5 3 9 5 S 1027,7 60 0 0,0
21.04.2017 05:00:00 2,3 -3,2 -0,5 16,3 15,2 6 3 10 5 S 1027,9 60 0 0,0
21.04.2017 04:00:00 2,8 -2,9 -1,1 16,6 15,2 6 3 12 7 S 1028,0 60 0 0,0
21.04.2017 03:00:00 1,8 -2,9 -0,8 17,0 15,2 0 0 5 3 N 1028,3 60 0 0,0
21.04.2017 02:00:00 4,1 -3,0 0,2 17,3 15,2 2 1 11 6 SW 1028,3 60 0 0,0
21.04.2017 01:00:00 6,2 -3,5 1,6 17,7 15,2 8 4 11 6 S 1027,8 60 0 0,0
21.04.2017 00:00:00 6,8 -3,2 1,6 18,0 15,2 6 3 10 5 S 1027,2 60 0 0,0
20.04.2017 23:00:00 8,5 -3,1 3,5 18,4 15,2 3 1 14 8 S 1027,0 60 0 0,0
20.04.2017 22:00:00 9,0 -4,2 3,6 18,7 15,2 5 3 13 7 WNW 1026,6 60 0 0,0
20.04.2017 21:00:00 11,6 -3,8 5,1 18,8 15,2 6 3 16 8 W 1025,9 60 15 0,0
20.04.2017 20:00:00 16,4 -5,4 15,5 18,9 15,2 10 6 28 15 N 1025,0 52 60 0,0
20.04.2017 19:00:00 18,2 -7,3 21,0 18,7 15,2 11 6 27 14 WSW 1024,6 49 60 0,0
20.04.2017 18:00:00 18,5 -5,6 23,7 18,3 15,2 12 6 18 10 W 1024,9 60 60 0,0
20.04.2017 17:00:00 18,3 -7,2 24,8 17,8 15,1 6 4 22 12 W 1025,3 40 60 0,0
20.04.2017 16:00:00 17,4 -4,6 24,7 17,1 15,2 11 6 22 12 W 1026,3 60 60 0,0
20.04.2017 15:00:00 16,1 -6,9 24,0 16,4 15,2 8 4 23 12 W 1026,9 60 60 0,0
20.04.2017 14:00:00 15,4 -7,5 24,2 15,7 15,2 4 2 16 9 WSW 1027,4 60 60 0,0
20.04.2017 13:00:00 14,1 -6,8 21,1 15,2 15,2 3 2 17 9 WSW 1028,0 20 60 0,0
20.04.2017 12:00:00 12,5 -4,2 17,9 14,8 15,2 6 3 19 10 WNW 1028,9 60 60 0,0
20.04.2017 11:00:00 10,1 -4,0 15,2 14,7 15,2 10 6 20 11 W 1029,3 30 60 0,0
20.04.2017 10:00:00 8,5 -2,5 9,4 14,8 15,2 9 5 19 10 W 1029,3 23 60 0,0
20.04.2017 09:00:00 6,1 -3,0 3,7 15,0 15,2 10 5 19 10 W 1029,1 20 60 0,0
20.04.2017 08:00:00 3,9 -3,4 -0,6 15,3 15,1 3 2 16 9 WNW 1028,6 43 38 0,0
20.04.2017 07:00:00 2,1 -3,6 0,2 15,6 15,2 11 6 21 11 W 1027,8 53 0 0,0
20.04.2017 06:00:00 3,3 -3,7 0,2 15,9 15,2 13 7 24 13 W 1027,2 60 0 0,0
20.04.2017 05:00:00 4,8 -3,7 0,9 16,2 15,1 14 8 26 14 W 1027,0 60 0 0,0
20.04.2017 04:00:00 3,8 -3,3 -0,3 16,5 15,1 9 5 17 9 WNW 1026,9 60 0 0,0
20.04.2017 03:00:00 4,4 -3,4 -0,2 16,9 15,1 8 4 15 8 W 1026,8 60 0 0,0
20.04.2017 02:00:00 5,9 -3,7 1,3 17,3 15,1 9 5 13 7 W 1026,8 60 0 0,0
20.04.2017 01:00:00 7,0 -4,4 1,5 17,6 15,1 5 3 16 9 WNW 1026,4 60 0 0,0
20.04.2017 00:00:00 9,0 -5,3 1,9 18,0 15,1 7 4 14 7 WNW 1025,7 60 0 0,0
19.04.2017 23:00:00 8,2 -4,6 2,1 18,3 15,1 4 2 13 7 WNW 1025,3 60 0 0,0
19.04.2017 22:00:00 9,2 -5,9 3,7 18,7 15,2 8 4 16 9 WNW 1024,7 60 0 0,0
19.04.2017 21:00:00 10,8 -6,6 6,2 18,8 15,1 9 5 20 11 WNW 1023,8 60 14 0,0
19.04.2017 20:00:00 14,8 -7,4 14,1 18,9 15,1 17 9 34 18 NNW 1023,1 37 60 0,0
19.04.2017 19:00:00 16,5 -5,3 18,5 18,8 15,1 22 12 35 19 NW 1022,6 33 60 0,0
19.04.2017 18:00:00 16,9 -3,8 20,6 18,5 15,1 22 12 36 19 NW 1022,7 29 60 0,0
19.04.2017 17:00:00 17,2 -2,5 21,7 18,1 15,1 23 12 37 20 NW 1022,7 29 60 0,0
19.04.2017 16:00:00 16,7 -2,4 21,6 17,5 15,1 20 11 41 22 W 1023,2 24 60 0,0
19.04.2017 15:00:00 16,0 -2,5 21,4 16,9 15,1 27 15 46 25 W 1023,7 20 60 0,0
19.04.2017 14:00:00 15,7 -2,3 21,0 16,2 15,1 26 14 42 23 W 1023,6 28 60 0,0
19.04.2017 13:00:00 14,4 -2,1 20,2 15,7 15,1 19 10 39 21 W 1024,5 35 60 0,0
19.04.2017 12:00:00 13,6 -2,8 18,3 15,4 15,1 20 11 33 18 W 1025,0 39 60 0,0
19.04.2017 11:00:00 11,9 -1,3 15,4 15,3 15,1 16 9 27 15 W 1025,3 46 60 0,0
19.04.2017 10:00:00 10,3 -0,8 11,3 15,4 15,1 14 8 25 14 W 1025,3 44 60 0,0
19.04.2017 09:00:00 7,9 -1,4 5,6 15,6 15,1 14 7 27 14 W 1025,4 49 60 0,0
19.04.2017 08:00:00 5,8 -0,9 1,0 15,8 15,1 4 2 12 7 WSW 1025,6 60 37 0,0
19.04.2017 07:00:00 4,6 -1,8 3,1 16,1 15,1 9 5 22 12 W 1025,0 60 0 0,0
19.04.2017 06:00:00 5,1 -2,0 3,1 16,4 15,1 11 6 22 12 W 1024,6 60 0 0,0
19.04.2017 05:00:00 5,5 -2,1 3,8 16,7 15,1 10 5 16 9 W 1024,4 60 0 0,0
19.04.2017 04:00:00 6,1 -2,3 4,3 17,0 15,0 8 4 18 10 W 1024,0 60 0 0,0
19.04.2017 03:00:00 6,7 -2,7 3,7 17,3 15,1 8 4 18 10 W 1024,0 60 0 0,0
19.04.2017 02:00:00 6,7 -2,5 3,2 17,6 15,0 9 5 15 8 WSW 1024,0 60 0 0,0
19.04.2017 01:00:00 6,3 -1,6 2,9 18,0 15,1 8 5 13 7 SW 1023,8 60 0 0,0
19.04.2017 00:00:00 9,6 -5,1 3,6 18,3 15,0 5 3 12 7 N 1023,0 60 0 0,0
18.04.2017 23:00:00 10,5 -4,0 5,5 18,6 15,0 8 4 16 9 NW 1022,5 60 0 0,0
18.04.2017 22:00:00 12,0 -3,0 8,9 18,9 15,0 11 6 29 15 NW 1021,4 60 0 0,0
18.04.2017 21:00:00 14,4 -1,7 12,5 19,0 15,0 16 9 35 19 NW 1020,2 60 13 0,0
18.04.2017 20:00:00 16,4 -1,2 15,6 19,1 15,0 24 13 49 26 WNW 1019,3 14 60 0,0
18.04.2017 19:00:00 17,7 -1,1 19,1 19,1 15,0 30 16 54 29 WNW 1018,9 19 60 0,0
18.04.2017 18:00:00 18,3 0,4 20,6 18,8 15,0 32 17 53 29 NW 1018,6 16 60 0,0
18.04.2017 17:00:00 19,2 2,1 22,7 18,4 15,0 32 17 58 31 WNW 1018,5 13 60 0,0
18.04.2017 16:00:00 18,9 1,8 22,9 17,9 15,0 36 19 60 33 WNW 1018,8 14 60 0,0
18.04.2017 15:00:00 18,8 4,2 22,6 17,3 15,0 32 18 55 30 WNW 1019,1 14 60 0,0
18.04.2017 14:00:00 17,9 4,5 22,0 16,8 15,0 33 18 61 33 WNW 1019,4 14 60 0,0
18.04.2017 13:00:00 17,2 4,5 20,9 16,3 15,0 39 21 61 33 WNW 1019,8 16 60 0,0
18.04.2017 12:00:00 16,5 4,5 19,1 16,0 15,0 36 20 51 28 WNW 1020,0 6 60 0,0
18.04.2017 11:00:00 14,8 6,4 16,6 15,9 15,0 28 15 44 24 WNW 1020,1 19 60 0,0
18.04.2017 10:00:00 12,8 6,2 13,5 16,0 15,0 28 15 49 26 W 1020,1 22 60 0,0
18.04.2017 09:00:00 11,4 5,7 10,0 16,1 15,0 25 14 41 22 W 1020,3 26 60 0,0
18.04.2017 08:00:00 10,0 5,2 8,6 16,3 15,0 21 11 34 18 W 1019,8 27 35 0,0
18.04.2017 07:00:00 9,6 5,0 8,6 16,5 15,0 18 10 32 18 W 1019,3 60 0 0,0
18.04.2017 06:00:00 10,2 5,6 9,1 16,8 15,0 18 10 35 19 W 1018,8 60 0 0,0
18.04.2017 05:00:00 11,4 5,7 10,4 17,0 15,0 19 10 37 20 W 1018,6 60 0 0,0
18.04.2017 04:00:00 11,9 5,7 10,7 17,2 14,9 18 10 33 18 W 1018,4 60 0 0,0
18.04.2017 03:00:00 12,6 6,0 11,3 17,5 15,0 17 9 32 17 W 1018,7 60 0 0,0
18.04.2017 02:00:00 12,7 6,3 11,2 17,7 14,9 16 8 28 15 W 1018,9 60 0 0,0
18.04.2017 01:00:00 13,0 5,9 11,8 17,9 14,9 15 8 29 16 W 1018,8 60 0 0,0
18.04.2017 00:00:00 13,8 6,2 12,6 18,2 14,9 18 10 29 16 W 1018,9 60 0 0,0
17.04.2017 23:00:00 14,4 6,5 13,0 18,4 14,9 15 8 26 14 W 1019,0 60 0 0,0

tt = Température de l'air
td = dewpoint
tt 5cm = Température de l'air 5cm
tt -20cm = Température de l'air -20cm
tt -100cm = Température de l'air -100cm
ff = Vitesse du vent
fx = gusts
dd = Direction du vent
ppp = reduced air pressure
vv = visibility
sd = Ensoleillement
rr = Quantités de précipitations

stations d'obs. à proximité